Weather History for Statesville, NC

Change the Weather History Date:

Saturday, December 29, 2012

  Actual Average (KHKY) Record (KHKY)
Temperature  
Mean Temperature 42 °F -  
Max Temperature 52 °F 49 °F 76 °F (1984)
Min Temperature 33 °F 28 °F 14 °F (1961)
Degree Days  
Heating Degree Days 22    
Moisture  
Dew Point 31 °F    
Average Humidity 74    
Maximum Humidity 98    
Minimum Humidity 49    
Precipitation  
Precipitation 0.06 in - - ()
Sea Level Pressure  
Sea Level Pressure 29.83 in    
Wind  
Wind Speed 5 mph (WNW)    
Max Wind Speed 16 mph    
Max Gust Speed 26 mph    
Visibility 8 miles    
Events Rain    
Averages and records for this station are not official NWS values.
T = Trace of Precipitation, MM = Missing Value Source: NWS Daily Summary

Daily Weather History Graph

Daily Weather History Graph

Search for Another Location

Airport:

Trip Planner

Search our weather history database for the weather conditions in past years. The results will help you decide how hot, cold, wet, or windy it might be!

Date:

Astronomy

Dec. 29, 2012 Rise Set
Actual Time 7:33 AM EST 5:19 PM EST
Civil Twilight 7:04 AM EST 5:47 PM EST
Nautical Twilight 6:32 AM EST 6:19 PM EST
Astronomical Twilight 6:01 AM EST 6:50 PM EST
Moon 6:47 PM EST (12/29) 8:08 AM EST (12/29)
Length of Visible Light 10h 42m
Length of Day
9h 45m
Full, 98% of the Moon is Illuminated
Dec 29
Full
Jan 4
Last Quarter
Jan 11
New
Jan 18
First Quarter
Jan 26
Full

Hourly Weather History & Observations

Time (EST) Temp. Windchill Dew Point Humidity Pressure Visibility Wind Dir Wind Speed Gust Speed Precip Events Conditions
12:15 AM 35.6 °F - 31.8 °F 86% 29.96 in 7.0 mi Calm Calm - N/A Rain Light Rain
12:35 AM 34.3 °F - 32.7 °F 94% 29.97 in 5.0 mi Calm Calm - N/A Rain Light Rain
12:55 AM 35.2 °F 32.4 °F 32.0 °F 88% 29.96 in 10.0 mi North 3.5 mph - N/A   Drizzle
1:15 AM 34.7 °F 30.6 °F 32.5 °F 92% 29.92 in 7.0 mi North 4.6 mph - N/A   Overcast
1:55 AM 34.2 °F - 32.9 °F 95% 29.91 in 5.0 mi Calm Calm - N/A Rain Light Rain
2:15 AM 34.7 °F - 33.1 °F 94% 29.91 in 5.0 mi Calm Calm - N/A Rain Light Rain
2:35 AM 33.8 °F - 32.4 °F 94% 29.93 in 2.0 mi Calm Calm - N/A Rain Light Rain
2:55 AM 33.8 °F - 32.7 °F 96% 29.91 in 4.0 mi Calm Calm - 0.01 in Rain Light Rain
3:15 AM 33.4 °F - 32.4 °F 96% 29.89 in 0.8 mi Calm Calm - 0.01 in Rain Light Rain
3:35 AM 33.4 °F - 32.9 °F 98% 29.87 in 2.0 mi Calm Calm - 0.02 in Rain Light Rain
3:55 AM 33.8 °F - 32.9 °F 96% 29.84 in 2.0 mi Calm Calm - 0.05 in Rain Rain
8:15 AM 34.2 °F - 32.9 °F 95% 29.77 in 2.0 mi Calm Calm - N/A   Overcast
8:35 AM 34.2 °F - 33.1 °F 96% 29.77 in 1.8 mi Calm Calm - N/A   Overcast
8:55 AM 34.9 °F - 33.8 °F 96% 29.77 in 1.8 mi Calm Calm - N/A   Overcast
9:15 AM 35.1 °F - 33.8 °F 95% 29.77 in 2.5 mi Calm Calm - N/A   Overcast
9:35 AM 35.6 °F - 34.2 °F 94% 29.77 in 2.5 mi Calm Calm - N/A   Overcast
9:55 AM 36.3 °F 33.7 °F 34.7 °F 94% 29.77 in 2.5 mi SSW 3.5 mph - N/A   Overcast
10:15 AM 36.9 °F 33.1 °F 34.9 °F 93% 29.76 in 3.0 mi SW 4.6 mph - N/A   Overcast
10:35 AM 38.7 °F 35.2 °F 36.1 °F 91% 29.77 in 4.0 mi SW 4.6 mph - N/A   Mostly Cloudy
10:55 AM 39.4 °F 37.2 °F 36.3 °F 89% 29.77 in 5.0 mi WSW 3.5 mph - N/A   Overcast
11:15 AM 40.1 °F 35.3 °F 36.5 °F 87% 29.76 in 5.0 mi SW 6.9 mph - N/A   Overcast
11:35 AM 40.6 °F 34.3 °F 36.9 °F 86% 29.75 in 5.0 mi WSW 10.4 mph - N/A   Overcast
11:55 AM 43.3 °F 38.1 °F 38.7 °F 84% 29.74 in 7.0 mi SW 9.2 mph - N/A   Mostly Cloudy
12:15 PM 44.2 °F 39.7 °F 38.3 °F 80% 29.73 in 10.0 mi WSW 8.1 mph - N/A   Scattered Clouds
12:35 PM 46.2 °F 40.8 °F 38.1 °F 73% 29.72 in 10.0 mi West 11.5 mph - N/A   Scattered Clouds
12:55 PM 47.3 °F - 38.1 °F 70% 29.72 in 10.0 mi WSW 10.4 mph - N/A   Clear
1:15 PM 48.4 °F - 38.3 °F 68% 29.71 in 10.0 mi West 10.4 mph - N/A   Scattered Clouds
1:35 PM 50.2 °F - 35.6 °F 57% 29.72 in 10.0 mi West 13.8 mph 20.7 mph N/A   Scattered Clouds
1:55 PM 47.7 °F - 35.1 °F 62% 29.71 in 10.0 mi West 16.1 mph 19.6 mph N/A   Scattered Clouds
2:15 PM 49.5 °F - 35.1 °F 58% 29.71 in 10.0 mi West 11.5 mph 23.0 mph N/A   Scattered Clouds
2:35 PM 49.8 °F - 32.7 °F 52% 29.72 in 10.0 mi West 12.7 mph - N/A   Scattered Clouds
2:55 PM 52.0 °F - 33.4 °F 49% 29.72 in 10.0 mi WNW 9.2 mph 23.0 mph N/A   Scattered Clouds
3:15 PM 50.4 °F - 31.6 °F 49% 29.73 in 10.0 mi NW 15.0 mph 21.9 mph N/A   Scattered Clouds
3:35 PM 49.1 °F - 30.4 °F 49% 29.75 in 10.0 mi WNW 10.4 mph 21.9 mph N/A   Clear
3:55 PM 47.8 °F - 29.5 °F 49% 29.76 in 10.0 mi WNW 12.7 mph 23.0 mph N/A   Clear
4:15 PM 46.0 °F 40.2 °F 28.9 °F 51% 29.77 in 10.0 mi WNW 12.7 mph 23.0 mph N/A   Clear
4:35 PM 45.1 °F 39.5 °F 29.1 °F 54% 29.78 in 10.0 mi NW 11.5 mph - N/A   Mostly Cloudy
4:55 PM 44.1 °F 38.6 °F 29.7 °F 57% 29.80 in 10.0 mi WNW 10.4 mph 17.3 mph N/A   Overcast
5:15 PM 43.2 °F 37.4 °F 28.8 °F 57% 29.82 in 10.0 mi WNW 10.4 mph 18.4 mph N/A   Overcast
5:35 PM 42.1 °F 35.7 °F 28.4 °F 58% 29.84 in 10.0 mi WNW 11.5 mph 17.3 mph N/A   Overcast
5:55 PM 40.6 °F 34.3 °F 27.5 °F 59% 29.84 in 10.0 mi NW 10.4 mph - N/A   Scattered Clouds
6:15 PM 39.6 °F 33.5 °F 28.0 °F 63% 29.85 in 10.0 mi WNW 9.2 mph - N/A   Scattered Clouds
6:35 PM 39.2 °F 31.6 °F 27.7 °F 63% 29.85 in 10.0 mi WNW 12.7 mph - N/A   Scattered Clouds
6:55 PM 39.2 °F 31.6 °F 27.3 °F 62% 29.86 in 10.0 mi NW 12.7 mph 17.3 mph N/A   Clear
7:15 PM 39.0 °F 33.4 °F 27.1 °F 62% 29.88 in 10.0 mi NW 8.1 mph - N/A   Clear
7:35 PM 37.8 °F 31.3 °F 27.1 °F 66% 29.88 in 10.0 mi West 9.2 mph - N/A   Clear
7:55 PM 38.3 °F 31.4 °F 26.6 °F 63% 29.90 in 10.0 mi WNW 10.4 mph 19.6 mph N/A   Mostly Cloudy
8:15 PM 38.3 °F 30.1 °F 25.5 °F 60% 29.91 in 10.0 mi WNW 13.8 mph 19.6 mph N/A   Scattered Clouds
8:35 PM 38.3 °F 29.7 °F 25.2 °F 59% 29.92 in 10.0 mi WNW 15.0 mph 26.5 mph N/A   Mostly Cloudy
8:55 PM 37.4 °F 29.3 °F 25.2 °F 61% 29.94 in 10.0 mi WNW 12.7 mph 20.7 mph N/A   Scattered Clouds
9:15 PM 37.2 °F 31.2 °F 24.3 °F 60% 29.94 in 10.0 mi WNW 8.1 mph - N/A   Scattered Clouds
9:55 PM 36.0 °F 27.5 °F 24.1 °F 62% 29.96 in 10.0 mi WNW 12.7 mph 17.3 mph N/A   Clear
10:15 PM 35.4 °F 28.4 °F 24.3 °F 64% 29.97 in 10.0 mi West 9.2 mph - N/A   Clear
10:35 PM 34.9 °F 29.0 °F 24.1 °F 65% 29.98 in 10.0 mi West 6.9 mph - N/A   Scattered Clouds
10:55 PM 35.1 °F 28.6 °F 23.9 °F 64% 29.99 in 10.0 mi West 8.1 mph - N/A   Mostly Cloudy
11:55 PM 35.4 °F 32.6 °F 24.3 °F 64% 30.02 in 10.0 mi West 3.5 mph - N/A   Overcast